User: anonymous   Login
Location: Bonn
(50.7330°N, 7.1000°E)
Time: 21:40:14
(UTC+02:00)
Language:

Cosmos 1933 Rocket - Orbit

View from above orbital plane
View from above orbital plane
View from above satellite
View from above satellite

Ground track
Ground track

The orbit data is extracted from the following two-line orbital elements,

1 18959U 88020B   18108.80444617  .00000082  00000-0  70562-5 0  9997
2 18959  82.5386 345.2414 0016154 204.5302 155.5146 14.83376538625886
Epoch (UTC): 18 April 2018 19:18:24
Eccentricity: 0.0016154
inclination: 82.5386°
perigee height: 607 km
apogee height: 630 km
right ascension of ascending node: 345.2414°
argument of perigee: 204.5302°
revolutions per day: 14.83376538
mean anomaly at epoch: 155.5146°
orbit number at epoch: 62588

The dashed part of the orbit path shows where the satellite is in the earth's shadow,  

DLR